When you browse on this site, cookies collect data to enhance your experience and personalize the content and advertising you see.
Visit our Privacy Policy to learn more. By continuing to use the site, you agree to this use of cookies and data.
  • In Hungary
  • List of Countries
  • For 7 days
  • Water Temperature
  • Satellite Maps
  • Weather Map
  • News
  • Weather Widgets
  • user-avatar
    Login

    Hourly Weather Gumi

    Today, 19 November, Monday

    Time Temperature Precipitation Wind Pressure Humidity
    00:00 +2°C° 0 mm 1 mps 671 mmHg 71%
    01:00 +2°C° 0 mm 1 mps 671 mmHg 70%
    02:00 +2°C° 0 mm 1 mps 671 mmHg 69%
    03:00 +2°C° 0 mm 1 mps 671 mmHg 70%
    04:00 +2°C° 0 mm 1 mps 671 mmHg 69%
    05:00 +2°C° 0 mm 1 mps 671 mmHg 68%
    06:00 +2°C° 0 mm 1 mps 671 mmHg 67%
    07:00 +3°C° 0 mm 1 mps 672 mmHg 63%
    08:00 +4°C° 0 mm 1 mps 672 mmHg 59%
    09:00 +5°C° 0 mm 1 mps 672 mmHg 57%
    10:00 +4°C° 0 mm 2 mps 673 mmHg 57%
    11:00 +5°C° 0 mm 2 mps 673 mmHg 57%
    12:00 +5°C° 0 mm 2 mps 673 mmHg 56%
    13:00 +5°C° 0 mm 2 mps 673 mmHg 59%
    14:00 +5°C° 0 mm 2 mps 673 mmHg 62%
    15:00 +6°C° 0 mm 1 mps 672 mmHg 65%
    16:00 +5°C° 0 mm 1 mps 672 mmHg 66%
    17:00 +4°C° 0 mm 1 mps 672 mmHg 68%
    18:00 +3°C° 0 mm 1 mps 672 mmHg 69%
    19:00 +3°C° 0 mm 1 mps 672 mmHg 66%
    20:00 +2°C° 0 mm 2 mps 672 mmHg 62%
    21:00 +2°C° 0 mm 2 mps 672 mmHg 59%
    22:00 +2°C° 0 mm 2 mps 672 mmHg 56%
    23:00 +2°C° 0 mm 2 mps 672 mmHg 53%

    Tomorrow, 20 November, Tuesday

    Time Temperature Precipitation Wind Pressure Humidity
    00:00 +1°C° 0 mm 3 mps 671 mmHg 51%
    01:00 +1°C° 0 mm 3 mps 671 mmHg 49%
    02:00 +2°C° 0 mm 3 mps 671 mmHg 47%
    03:00 +2°C° 0 mm 3 mps 670 mmHg 46%
    04:00 +2°C° 0 mm 3 mps 670 mmHg 45%
    05:00 +2°C° 0 mm 3 mps 670 mmHg 44%
    06:00 +2°C° 0 mm 3 mps 669 mmHg 44%
    07:00 +5°C° 0 mm 2 mps 670 mmHg 42%
    08:00 +7°C° 0 mm 2 mps 670 mmHg 40%
    09:00 +8°C° 0 mm 2 mps 670 mmHg 38%
    10:00 +9°C° 0 mm 2 mps 669 mmHg 39%
    11:00 +11°C° 0 mm 1 mps 669 mmHg 39%
    12:00 +12°C° 0 mm 1 mps 668 mmHg 40%
    13:00 +12°C° 0 mm 1 mps 668 mmHg 43%
    14:00 +12°C° 0 mm 1 mps 667 mmHg 47%
    15:00 +11°C° 0 mm 1 mps 667 mmHg 50%
    16:00 +9°C° 0 mm 2 mps 666 mmHg 53%
    17:00 +8°C° 0 mm 2 mps 666 mmHg 55%
    18:00 +7°C° 0 mm 3 mps 666 mmHg 57%
    19:00 +7°C° 0 mm 3 mps 666 mmHg 58%
    20:00 +5°C° 0 mm 3 mps 666 mmHg 59%
    21:00 +5°C° 0 mm 3 mps 666 mmHg 60%
    22:00 +5°C° 0 mm 3 mps 666 mmHg 60%
    23:00 +5°C° 0 mm 3 mps 666 mmHg 60%

    Day after tomorrow, 21 November, Wednesday

    Time Temperature Precipitation Wind Pressure Humidity
    00:00 +6°C° 0 mm 2 mps 666 mmHg 60%
    01:00 +5°C° 0 mm 3 mps 666 mmHg 63%
    02:00 +4°C° 0 mm 3 mps 666 mmHg 67%
    03:00 +3°C° 0 mm 3 mps 666 mmHg 70%
    04:00 +3°C° 0.1 mm 3 mps 666 mmHg 72%
    05:00 +4°C° 0.1 mm 2 mps 666 mmHg 73%
    06:00 +4°C° 0.1 mm 2 mps 666 mmHg 75%
    07:00 +5°C° 0 mm 2 mps 666 mmHg 72%
    08:00 +6°C° 0 mm 2 mps 667 mmHg 70%
    09:00 +6°C° 0 mm 2 mps 667 mmHg 67%
    10:00 +7°C° 0 mm 3 mps 667 mmHg 65%
    11:00 +7°C° 0 mm 3 mps 667 mmHg 63%
    12:00 +7°C° 0 mm 4 mps 667 mmHg 62%
    13:00 +6°C° 0 mm 4 mps 667 mmHg 66%
    14:00 +5°C° 0 mm 4 mps 667 mmHg 69%
    15:00 +5°C° 0 mm 4 mps 666 mmHg 73%
    16:00 +4°C° 0 mm 4 mps 667 mmHg 77%
    17:00 +3°C° 0 mm 3 mps 667 mmHg 81%
    18:00 +2°C° 0 mm 3 mps 667 mmHg 84%
    19:00 +2°C° 0.1 mm 3 mps 667 mmHg 85%
    20:00 +2°C° 0.1 mm 3 mps 667 mmHg 85%
    21:00 +3°C° 0.1 mm 2 mps 667 mmHg 86%
    22:00 +3°C° 0.1 mm 2 mps 667 mmHg 87%
    23:00 +3°C° 0.1 mm 2 mps 666 mmHg 88%

    22 November, Thursday

    Time Temperature Precipitation Wind Pressure Humidity
    00:00 +2°C° 0.1 mm 2 mps 666 mmHg 89%
    01:00 +2°C° 0.1 mm 2 mps 666 mmHg 89%
    02:00 +3°C° 0.1 mm 1 mps 666 mmHg 90%
    03:00 +3°C° 0.1 mm 1 mps 666 mmHg 90%
    04:00 +3°C° 0 mm 1 mps 666 mmHg 91%
    05:00 +3°C° 0 mm 1 mps 666 mmHg 91%
    06:00 +3°C° 0 mm 1 mps 666 mmHg 91%
    07:00 +3°C° 0 mm 1 mps 666 mmHg 88%
    08:00 +4°C° 0 mm 1 mps 667 mmHg 84%
    09:00 +3°C° 0 mm 2 mps 667 mmHg 81%
    10:00 +4°C° 0 mm 2 mps 667 mmHg 80%
    11:00 +4°C° 0 mm 2 mps 667 mmHg 78%
    12:00 +4°C° 0 mm 2 mps 667 mmHg 76%
    13:00 +4°C° 0 mm 2 mps 667 mmHg 78%
    14:00 +4°C° 0 mm 2 mps 667 mmHg 80%
    15:00 +4°C° 0 mm 2 mps 667 mmHg 82%
    16:00 +3°C° 0 mm 2 mps 667 mmHg 84%
    17:00 +3°C° 0 mm 2 mps 667 mmHg 86%
    18:00 +3°C° 0 mm 1 mps 667 mmHg 88%
    19:00 +3°C° 0 mm 1 mps 667 mmHg 87%
    20:00 +3°C° 0 mm 1 mps 667 mmHg 85%
    21:00 +3°C° 0 mm 1 mps 667 mmHg 84%
    22:00 +3°C° 0 mm 1 mps 667 mmHg 83%
    23:00 +3°C° 0 mm 1 mps 667 mmHg 83%

    23 November, Friday

    Time Temperature Precipitation Wind Pressure Humidity
    00:00 +3°C° 0 mm 1 mps 667 mmHg 82%
    01:00 +3°C° 0 mm 1 mps 667 mmHg 82%
    02:00 +3°C° 0 mm 1 mps 667 mmHg 83%
    03:00 +3°C° 0 mm 1 mps 667 mmHg 83%
    04:00 +3°C° 0 mm 1 mps 667 mmHg 83%
    05:00 +3°C° 0 mm 1 mps 667 mmHg 83%
    06:00 +2°C° 0 mm 1 mps 667 mmHg 83%
    07:00 +3°C° 0 mm 1 mps 668 mmHg 79%
    08:00 +4°C° 0 mm 1 mps 668 mmHg 76%
    09:00 +4°C° 0 mm 2 mps 669 mmHg 73%
    10:00 +4°C° 0 mm 2 mps 669 mmHg 72%
    11:00 +5°C° 0 mm 2 mps 669 mmHg 72%
    12:00 +5°C° 0 mm 2 mps 669 mmHg 71%
    13:00 +5°C° 0 mm 2 mps 669 mmHg 74%
    14:00 +3°C° 0 mm 3 mps 669 mmHg 77%
    15:00 +3°C° 0 mm 3 mps 669 mmHg 79%
    16:00 +2°C° 0 mm 3 mps 670 mmHg 82%
    17:00 +1°C° 0 mm 3 mps 671 mmHg 84%
    18:00 +1°C° 0 mm 3 mps 671 mmHg 87%
    19:00 0°C° 0 mm 3 mps 672 mmHg 85%
    20:00 0°C° 0 mm 3 mps 673 mmHg 84%
    21:00 0°C° 0 mm 3 mps 673 mmHg 83%
    22:00 -1°C° 0 mm 3 mps 674 mmHg 83%
    23:00 -1°C° 0 mm 3 mps 674 mmHg 83%

    24 November, Saturday

    Time Temperature Precipitation Wind Pressure Humidity
    00:00 -2°C° 0 mm 3 mps 674 mmHg 83%
    01:00 -2°C° 0 mm 2 mps 675 mmHg 84%
    02:00 -2°C° 0 mm 2 mps 675 mmHg 84%
    03:00 -2°C° 0 mm 2 mps 675 mmHg 84%
    04:00 -2°C° 0 mm 2 mps 675 mmHg 84%
    05:00 0°C° 0 mm 1 mps 676 mmHg 84%
    06:00 0°C° 0 mm 1 mps 676 mmHg 84%
    07:00 -1°C° 0 mm 2 mps 677 mmHg 80%
    08:00 +1°C° 0 mm 2 mps 677 mmHg 77%
    09:00 +1°C° 0 mm 2 mps 678 mmHg 73%
    10:00 +1°C° 0 mm 3 mps 678 mmHg 71%
    11:00 +2°C° 0 mm 3 mps 678 mmHg 69%
    12:00 +3°C° 0 mm 4 mps 678 mmHg 67%
    13:00 +3°C° 0 mm 4 mps 677 mmHg 69%
    14:00 +3°C° 0 mm 4 mps 677 mmHg 70%
    15:00 +3°C° 0 mm 4 mps 676 mmHg 72%
    16:00 +1°C° 0 mm 4 mps 676 mmHg 75%
    17:00 0°C° 0 mm 4 mps 676 mmHg 78%
    18:00 0°C° 0 mm 3 mps 676 mmHg 80%
    19:00 0°C° 0 mm 3 mps 676 mmHg 79%
    20:00 0°C° 0 mm 3 mps 675 mmHg 77%
    21:00 +1°C° 0 mm 3 mps 675 mmHg 76%
    22:00 +1°C° 0 mm 3 mps 675 mmHg 74%
    23:00 +1°C° 0 mm 3 mps 674 mmHg 72%
    Show more